Baton Rouge, LA

5:39 PM CDT on April 25, 2017 (GMT -0500)
Baton Rouge Metro-Ryan

Weather History for KBTR - November, 2013

Change the Weather History Date:

Monday, November 11, 2013

  Actual Average Record
Temperature  
Mean Temperature 63 °F 62 °F  
Max Temperature 76 °F 73 °F 86 °F (1935)
Min Temperature 49 °F 50 °F 32 °F (1943)
Degree Days  
Heating Degree Days 2 5  
Month to date heating degree days 47 47  
Since 1 July heating degree days 66 93  
Cooling Degree Days 0 2  
Month to date cooling degree days 11 26  
Year to date cooling degree days 2641 2776  
Growing Degree Days 12 (Base 50)    
Moisture  
Dew Point 50 °F    
Average Humidity 66    
Maximum Humidity 93    
Minimum Humidity 38    
Precipitation  
Precipitation 0.00 in 0.13 in 3.70 in (1940)
Month to date precipitation 0.30 1.55  
Year to date precipitation 63.73 52.50  
Snow  
Snow 0.00 in - - ()
Month to date snowfall 0.0  
Since 1 July snowfall 0.0  
Since 1 September snowfall 0.0  
Snow Depth 0.00 in    
Sea Level Pressure  
Sea Level Pressure 30.20 in    
Wind  
Wind Speed 2 mph (ENE)    
Max Wind Speed 8 mph    
Max Gust Speed 13 mph    
Visibility 10 miles    
Events      
T = Trace of Precipitation, MM = Missing Value Source: NWS Daily Summary

Daily Weather History Graph

Daily Weather History Graph

Search for Another Location

Airport or City:

Trip Planner

Search our weather history database for the weather conditions in past years. The results will help you decide how hot, cold, wet, or windy it might be!

Date:

Astronomy

Nov. 11, 2013 Rise Set
Actual Time 6:27 AM CST 5:09 PM CST
Civil Twilight 6:02 AM CST 5:34 PM CST
Nautical Twilight 5:33 AM CST 6:03 PM CST
Astronomical Twilight 5:04 AM CST 6:32 PM CST
Moon 1:28 PM CST (11/11) 12:37 AM CST (11/11)
Length of Visible Light 11h 32m
Length of Day
10h 42m
Waxing Gibbous, 66% of the Moon is Illuminated
Nov 11
Waxing Gibbous
Nov 17
Full
Nov 25
Last Quarter
Dec 2
New
Dec 9
First Quarter

Hourly Weather History & Observations

Time (CST) Temp. Dew Point Humidity Pressure Visibility Wind Dir Wind Speed Gust Speed Precip Events Conditions
12:53 AM 52.0 °F 48.9 °F 89% 30.23 in 10.0 mi Calm Calm - N/A   Clear
1:53 AM 50.0 °F 48.0 °F 93% 30.22 in 10.0 mi Calm Calm - N/A   Clear
2:53 AM 51.1 °F 48.0 °F 89% 30.22 in 10.0 mi Calm Calm - N/A   Clear
3:53 AM 50.0 °F 48.0 °F 93% 30.21 in 10.0 mi Calm Calm - N/A   Clear
4:53 AM 50.0 °F 46.9 °F 89% 30.21 in 10.0 mi NNE 3.5 mph - N/A   Clear
5:53 AM 48.9 °F 46.0 °F 90% 30.22 in 10.0 mi Calm Calm - N/A   Clear
6:53 AM 50.0 °F 46.0 °F 86% 30.23 in 10.0 mi NNE 3.5 mph - N/A   Clear
7:53 AM 55.9 °F 48.0 °F 75% 30.25 in 10.0 mi NE 5.8 mph - N/A   Clear
8:53 AM 62.1 °F 48.9 °F 62% 30.25 in 10.0 mi East 4.6 mph - N/A   Clear
9:53 AM 66.9 °F 48.0 °F 51% 30.26 in 10.0 mi East 3.5 mph - N/A   Clear
10:53 AM 72.0 °F 48.0 °F 43% 30.24 in 10.0 mi ESE 3.5 mph - N/A   Clear
11:53 AM 72.0 °F 48.9 °F 44% 30.22 in 10.0 mi Calm Calm - N/A   Clear
12:53 PM 73.9 °F 48.9 °F 41% 30.18 in 10.0 mi ENE 4.6 mph - N/A   Clear
1:53 PM 73.9 °F 48.0 °F 40% 30.16 in 10.0 mi Variable 3.5 mph - N/A   Clear
2:53 PM 75.0 °F 48.9 °F 40% 30.15 in 10.0 mi Calm Calm - N/A   Clear
3:53 PM 73.0 °F 50.0 °F 44% 30.15 in 10.0 mi NNE 3.5 mph - N/A   Clear
4:53 PM 66.9 °F 53.1 °F 61% 30.15 in 10.0 mi Calm Calm - N/A   Clear
5:53 PM 62.1 °F 55.0 °F 78% 30.16 in 10.0 mi Calm Calm - N/A   Clear
6:53 PM 59.0 °F 54.0 °F 83% 30.18 in 10.0 mi Calm Calm - N/A   Clear
7:53 PM 57.9 °F 55.0 °F 90% 30.19 in 10.0 mi Calm Calm - N/A   Clear
8:53 PM 55.9 °F 54.0 °F 93% 30.20 in 10.0 mi Calm Calm - N/A   Clear
9:53 PM 55.0 °F 52.0 °F 89% 30.21 in 10.0 mi Calm Calm - N/A   Clear
10:53 PM 53.1 °F 51.1 °F 93% 30.21 in 10.0 mi Calm Calm - N/A   Clear
11:53 PM 52.0 °F 50.0 °F 93% 30.20 in 10.0 mi Calm Calm - N/A   Clear